AirNav   Everest Fuels
 
 1137 users online  

5MO5 St Lukes Hospital Heliport
Kansas City, Missouri, USA

GOING TO KANSAS CITY?


FAA INFORMATION EFFECTIVE 16 JULY 2020

Location

FAA Identifier: 5MO5
Lat/Long: 39-02-47.3700N 094-35-21.5900W
39-02.789500N 094-35.359833W
39.0464917,-94.5893306
(estimated)
Elevation: 980 ft. / 299 m (estimated)
Variation: 05E (1985)
Time zone: UTC -5 (UTC -6 during Standard Time)
Zip code: 64111

Heliport Operations

Heliport use: Private use, MEDICAL USE.
Activation date: 04/1991
Control tower: no
ARTCC: KANSAS CITY CENTER
FSS: COLUMBIA FLIGHT SERVICE STATION
Attendance: CONTINUOUS
Wind indicator: lighted
Segmented circle: no
Lights: SS-SR
Beacon: white-green-yellow (heliport)
ACTVT ROTG BCN - 123.05

Heliport Communications

WX ASOS at MKC (5 nm N): PHONE 816-329-2843
WX ASOS at LXT (11 nm SE): 124.175 (816-347-9807)
WX ASOS at OJC (14 nm SW): 119.35 (913-780-6969)
WX ASOS at MCI (16 nm N): PHONE 816-329-2808
WX ASOS at IXD (19 nm SW): 135.325 (913-780-6987)

Nearby radio navigation aids

VOR radial/distance  VOR name  Freq  Var
MCIr149/15.9KANSAS CITY VORTAC113.2505E
ANXr255/21.7NAPOLEON VORTAC114.0007E

Heliport Services

Runway Information

Helipad H1

Dimensions: 52 x 50 ft. / 16 x 15 m
Surface: concrete
ROOFTOP.
Runway edge lights: PERI
Latitude: 39-02.789500N
Longitude: 094-35.359833W
Elevation: 980.0 ft.
Traffic pattern: leftleft

Helipad H2

Dimensions: 52 x 50 ft. / 16 x 15 m
Surface: concrete
Runway edge lights: PERI
Latitude: 39-02.777833N
Longitude: 094-35.360667W
Elevation: 980.0 ft.
Traffic pattern: leftleft

Heliport Ownership and Management from official FAA records

Ownership: Privately-owned
Owner: ST LUKES HOSPITAL
4401 WORNALL ROAD
KANSAS CITY, MO 64111
Phone 816-932-2000
Manager: JANE PECK
4401 WORNALL ROAD, 4401 WORNALL ROAD
KANSAS CITY, MO 64111
Phone 816-932-2000
DIRECTOR SAFETY & PREPAREDNESS DEREK COLLINS 816-932-7496

Additional Remarks

OWNER DESIRES ARPT NOT BE CHARTED.
FOR CD CTC KANSAS CITY APCH AT 816-329-2710.

Instrument Procedures

There are no published instrument procedures at 5MO5.

Some nearby airports with instrument procedures:

KMKC - Charles B Wheeler Downtown Airport (5 nm N)
KLXT - Lee's Summit Municipal Airport (11 nm SE)
KOJC - Johnson County Executive Airport (14 nm SW)
KMCI - Kansas City International Airport (16 nm N)
3GV - East Kansas City Airport (18 nm E)
KIXD - New Century AirCenter Airport (19 nm SW)
 
Loc | Ops | Rwys | IFR | FBO | Links
Com | Nav | Svcs | Stats | Notes
Area around 5MO5 (St Lukes Hospital Heliport)
 
Road maps at: MapQuest Bing Google
 
Aerial photo
No photo
 
Sectional chart

 
Airport distance calculator
Flying to St Lukes Hospital Heliport? Find the distance to fly.

From to 5MO5

Sunrise and sunset
Times for 06-Aug-2020
 Local
(UTC-5)
 Zulu
(UTC)
Morning civil twilight05:5610:56
Sunrise06:2511:25
Sunset20:2301:23
Evening civil twilight20:5201:52

Current date and time
Zulu (UTC)  06-Aug-2020 22:52:40
Local (UTC-5)  06-Aug-2020 17:52:40
 
METAR
KMKC 
4nm N 
062154Z 17009G17KT 10SM SCT041 29/19 A2997 RMK AO2 SLP143 T02890189
KLXT 
11nm SE 
062153Z AUTO 15011KT 10SM BKN032 29/20 A3000 RMK AO2 SLP151 T02890200
KOJC 
14nm SW 
062153Z 14008G18KT 10SM CLR 27/21 A3000 RMK AO2 SLP147 T02670206
KMCI 
17nm NW 
062153Z 13011KT 10SM BKN032 BKN200 28/22 A2999 RMK AO2 SLP144 T02830217 $
KIXD 
19nm SW 
062153Z 14012KT 10SM CLR 28/20 A2999 RMK AO2 SLP147 T02780200
TAF
KMKC 
4nm N 
061720Z 0618/0718 15008KT P6SM FEW035 BKN080 FM071000 18009KT P6SM SCT035 BKN060
KMCI 
17nm NW 
061720Z 0618/0718 15008KT P6SM BKN080 FM070900 18009KT P6SM SCT035 BKN060
KIXD 
19nm SW 
061720Z 0618/0718 15008KT P6SM FEW035 BKN080 FM071000 18009KT P6SM VCTS SCT035 BKN040CB
NOTAMs
Click for the latest NOTAMs
NOTAMs are issued by the DoD/FAA and will open in a separate window not controlled by AirNav.

 

 
 

Would you like to see your business listed on this page?

 If your business provides an interesting product or service to pilots, flight crews, aircraft, or users of the St Lukes Hospital Heliport, you should consider listing it here.  To start the listing process, click on the button below
 
Add a business
 

Other Pages about St Lukes Hospital Heliport

Update a link
 
Copyright © AirNav, LLC. All rights reserved. Privacy Policy  Contact